This demonstration page uses our WeatherBlox Daily Observations layout. Learn more.

Left ArrowRight Arrow

44.8408, -93.29828

Hourly Observations for September 29, 2016

Temp ( °F °C ) Dew Point ( °F °C ) Humidity (%) Winds ( mph kmh ) Pressure ( in mb ) Visibility ( mi km ) Precip ( " mm )
12:53 am 00:53 Clear 52 11.1 47 8.3 83 83 NE 7 11 30.38 1029 10 16 0.00 0.00
1:53 am 01:53 Clear 49 9.4 47 8.3 93 93 NW 5 7 30.40 1029 10 16 0.00 0.00
2:53 am 02:53 Clear 49 9.4 46 7.8 90 90 N 6 9 30.40 1030 10 16 0.00 0.00
3:53 am 03:53 Clear 50 10 47 8.3 89 89 N 7 11 30.41 1030 10 16 0.00 0.00
4:53 am 04:53 Mostly Clear 49 9.4 46 7.8 90 90 N 8 13 30.43 1031 10 16 0.00 0.00
5:53 am 05:53 Mostly Clear 47 8.3 45 7.2 93 93 NNE 5 7 30.44 1031 10 16 0.00 0.00
6:18 am 06:18 Partly Cloudy 46 8 45 7 93 93 NNE 3 6 30.48 1032 10 16 0.00 0.00
6:24 am 06:24 Mostly Cloudy 47 8.3 45 7.2 93 93 NNE 3 6 30.48 1032 10 16 0.00 0.00
6:53 am 06:53 Partly Cloudy 47 8.3 45 7.2 93 93 N 3 6 30.45 1031 10 16 0.00 0.00
7:53 am 07:53 Mostly Cloudy 49 9.4 46 7.8 90 90 NNE 7 11 30.47 1032 10 16 0.00 0.00
8:32 am 08:32 Partly Cloudy 50 10 46 8 88 88 ENE 7 11 30.48 1032 10 16 0.00 0.00
8:53 am 08:53 Partly Cloudy 52 11.1 48 8.9 86 86 E 5 7 30.48 1032 10 16 0.00 0.00
9:53 am 09:53 Mostly Sunny 56 13.3 49 9.4 77 77 ENE 12 19 30.48 1032 10 16 0.00 0.00
10:53 am 10:53 Partly Cloudy 60 15.6 49 9.4 67 67 NE 8 13 30.48 1032 10 16 0.00 0.00
11:53 am 11:53 Partly Cloudy 62 16.7 50 10 65 65 NNE 10 17 30.48 1032 10 16 0.00 0.00
12:00 pm 12:00 Mostly Cloudy 61 16 48 9 63 63 NNE 9 15 30.48 1032 10 16 0.00 0.00
12:53 pm 12:53 Partly Cloudy 63 17.2 49 9.4 60 60 ENE 7 11 30.48 1032 10 16 0.00 0.00
1:53 pm 13:53 Partly Cloudy 64 17.8 50 10 60 60 VRB 3 6 30.45 1031 10 16 0.00 0.00
2:53 pm 14:53 Mostly Sunny 66 18.9 51 10.6 59 59 NNE 9 15 30.43 1031 10 16 0.00 0.00
3:53 pm 15:53 Mostly Sunny 67 19.4 50 10 55 55 VRB 7 11 30.41 1030 10 16 0.00 0.00
4:53 pm 16:53 Sunny 68 20 50 10 53 53 NE 6 9 30.40 1030 10 16 0.00 0.00
5:53 pm 17:53 Sunny 66 18.9 50 10 56 56 NNE 8 13 30.40 1029 10 16 0.00 0.00
6:53 pm 18:53 Sunny 64 17.8 50 10 60 60 VRB 6 9 30.40 1030 10 16 0.00 0.00
7:53 pm 19:53 Clear 60 15.6 50 10 70 70 N 6 9 30.39 1029 10 16 0.00 0.00
8:53 pm 20:53 Clear 59 15 50 10 72 72 NNE 6 9 30.40 1029 10 16 0.00 0.00
9:53 pm 21:53 Clear 58 14.4 50 10 75 75 NNE 5 7 30.40 1029 10 16 0.00 0.00
10:53 pm 22:53 Clear 57 13.9 51 10.6 81 81 ENE 6 9 30.40 1029 10 16 0.00 0.00
11:53 pm 23:53 Clear 57 14 52 11 82 82 ENE 5 7 30.39 1029 10 16 0.00 0.00

Powered by AerisWeather